Retour au catalogue

STARLINK-32827

ActifCommunicationsVLEO
NORAD 63043·PAYLOAD·🇺🇸 United States

Lancé Feb 18, 2025 depuis Cape Canaveral Space Force Station

Loading…

Prochains Passages (prochaines 24 heures)

TLE

FraisSource: CelesTrak SupGP

Époque: Sep 14, 2026, 21:05 UTC

1 63043C 25034Q   26257.87895833 -.00049103  00000+0 -14508-2 0  2578
2 63043  53.1574 108.3372 0001306  87.4988   6.3042 15.34413395    15

Suivez STARLINK-32827 en temps réel avec AllMySat

Download on the App Store